{"data":{"norad_id":66123,"intl_designator":"2025-237K","name":"STARLINK-35628","alt_names":[],"object_type":"PAYLOAD","status":"ACTIVE","operator":null,"country":"US","launch_date":"2025-10-22","launch_site_code":"AFWTR","launch_vehicle":null,"mission":null,"orbit_class":"UNKNOWN","rcs_meters":null,"size_class":null,"mass_kg":null,"dimensions":null,"purposes":["comms"],"wikipedia_slug":null,"has_3d_model":false,"image_url":null,"decayed_at":null,"tle_current":{"epoch":"2026-09-20T03:02:40.719552Z","epoch_age_seconds":132687,"freshness":"FRESH","line1":"1 66123U 25237K   26263.12686018  .00016126  00000+0  48718-3 0  9994","line2":"2 66123  53.1592 213.3682 0001325  84.6320 275.4834 15.34413878 52424","mean_motion":15.34413878,"eccentricity":0.0001325,"inclination_deg":53.1592,"raan_deg":213.3682,"arg_perigee_deg":84.632,"mean_anomaly_deg":275.4834,"bstar":0.00048718,"rev_number":5242,"period_min":93.846909275673,"perigee_km":461.75558631088,"apogee_km":463.56839804381,"semimajor_km":6840.7989921773,"source":"CELESTRAK","updated_at":"2026-09-21T09:00:35.808193Z"}}}